HG-01

导读

HG-01卫星(卫星互联网高轨卫星01星)由中国于2024年2月29日在西昌卫星发射中心,通过长征三号乙运载火箭成功发射,卫星顺利进入预定轨道,发射任务圆满成功。该卫星是中国卫星互联网建设的重要组成部分,将为全球提供高速卫星互联网接入服务,助力天地一体化网络构建,推动通信技术发展与数字基础设施普及。

Basic Information
目录编号:
59069
目录名称:
HG-01
国际标识:
2024-040A
轨道中心:
EARTH
卫星名称:
HG-01
卫星全名:
--
卫星状态:
在轨 (已飞行837 天)
发射日期:
2024-02-29 UTC
国别 :
中国 (CN)
星等 :
--
Orbit Information
数据来源 国际轨道数据 AOE轨道数据
星历时间 2026-06-15T04:06:36+0800
5小时前
查看轨道信息
2026-06-15T05:00:00+0800
4小时前
查看轨道信息
半长轴 42165.878km 42165.261km
偏心率 0.0002683 0.0002788
轨道倾角 0.069° 0.067°
近地点辐角 69.594° 60.759°
升交点赤经 327.674° 333.170°
平近点角 201.093° 217.815°
近地点 35776.427km 35775.368km
远地点 35799.055km 35798.88km
周期 1436.155分钟 1436.124分钟
每日圈数 1.002677 1.002699
Detailed Information
使用方式:
暂无
2D Orbit Map
3D Orbit Map
Orbit Altitude Analysis Chart
Orbit Inclination Analysis Chart
Orbit Comprehensive Analysis Chart
View Comprehensive Chart